#timestamp,LO_Frequency,Hit,StdDev 
1628445615.6,286047004.4,Y
1628445635.5,286047002.3,P
1628445655.3,286047000.6,N
1628445675.1,286047000.0,N
1628445695.9,286046998.6,N
1628445715.7,286047000.9,N
1628445735.5,286047000.3,N
1628445755.4,286047000.3,N
1628445775.2,286047000.0,N
1628445795.1,286047000.6,N
1628445796.0,286047000.6,N
1628445815.8,286046998.3,N
1628445835.6,286047001.2,N
1628445855.5,286047000.3,N
1628445875.3,286047000.2,N
1628445895.2,286046999.8,N
1628445915.9,286047002.4,N
1628445935.7,286047002.7,N
1628445955.6,286047000.9,N
1628445975.4,286047000.5,N
1628445995.2,286047000.5,N
1628446015.1,286047000.9,N
1628446035.8,286047001.2,N
1628446055.7,286047000.6,N
1628446075.5,286046999.8,N
1628446095.3,286046999.7,N
1628446115.2,286047002.5,N
1628446135.0,286047002.6,N
1628446135.9,286047002.6,N
1628446155.8,286047000.0,N
1628446175.6,286046998.2,N
1628446195.4,286047000.1,N
1628446215.3,286047001.2,N
1628446235.1,286047001.0,N
1628446255.9,286047001.1,N
1628446275.7,286047000.8,N
1628446295.5,286046998.3,N
1628446315.4,286046999.0,N
1628446335.2,286046996.9,N
1628446355.0,286046998.9,N
1628446355.9,286046998.9,N
1628446375.8,286046999.6,N
1628446395.6,286046998.2,N
1628446415.4,286046998.2,N
1628446435.3,286047000.8,N
1628446455.1,286047000.3,N
1628446475.9,286047002.4,N
1628446495.7,286047002.0,N
1628446515.5,286047002.3,N
1628446535.4,286047002.0,N
1628446555.2,286046999.7,N
1628446575.0,286047002.5,N
1628446575.9,286047002.5,N
1628446595.8,286047001.7,N
1628446615.6,286047004.1,N
1628446635.5,286047004.2,N
1628446655.3,286047004.2,N
1628446675.1,286047004.2,N
1628446725.9,286047003.6,E
1628446735.8,286047002.4,N
1628446755.7,286047001.1,P
1628446775.5,286047000.6,N
1628446795.3,286047000.6,N
1628446815.2,286047000.0,N
1628446835.0,286047000.4,N
1628446835.9,286047000.4,N
1628446855.8,286047000.7,N
1628446875.6,286046998.3,N
1628446895.4,286046998.8,N
1628446915.3,286046998.3,N
1628446935.1,286046998.6,N
1628446955.8,286047001.2,N
1628446975.7,286046998.8,N
1628446995.5,286046997.1,N
1628447015.4,286046996.6,N
1628447035.2,286046999.5,N
1628447055.0,286046997.7,N
1628447055.9,286046997.7,N
1628447075.8,286046995.2,Y
1628447095.6,286046995.6,P
1628447115.5,286046995.6,N
1628447135.3,286046993.4,P
1628447155.1,286046993.4,Y
1628447175.9,286046999.3,P
1628447195.7,286046997.0,N
1628447215.5,286046997.1,N
1628447235.4,286046997.4,N
1628447255.2,286046997.4,N
1628447275.1,286046997.9,N
1628447276.0,286046997.9,N
1628447295.8,286046997.5,N
1628447315.6,286046995.3,Y
1628447335.5,286046996.7,P
1628447355.3,286046999.5,N
1628447375.2,286046998.9,N
1628447395.9,286047000.1,N
1628447415.7,286046999.7,N
1628447435.6,286047002.4,N
1628447455.4,286047001.7,N
1628447475.2,286047002.0,N
1628447495.1,286047001.8,N
1628447496.0,286047001.8,N
1628447515.8,286047002.4,N
1628447535.7,286047002.0,N
1628447555.5,286046999.7,N
1628447575.3,286047000.0,N
1628447595.2,286047000.4,N
1628447615.0,286047000.3,N
1628447615.9,286047000.3,N
1628447635.7,286047000.5,N
1628447655.6,286047000.9,N
1628447675.4,286047000.2,N
1628447695.3,286047002.2,N
1628447715.1,286047001.5,N
1628447716.0,286047001.5,N
1628447735.8,286047001.9,N
1628447755.7,286047003.7,N
1628447775.5,286047003.8,N
1628447795.3,286047003.7,N
1628447815.2,286047004.1,N
1628447835.0,286047001.9,N
1628447835.9,286047001.9,N
1628447855.8,286047001.4,N
1628447875.6,286047001.6,N
1628447895.5,286047001.8,N
1628447915.3,286047002.7,N
1628447935.1,286047002.2,N
1628447955.9,286046999.8,N
1628447975.7,286047004.0,Y
1628447995.5,286047002.5,P
1628448015.4,286047000.4,N
1628448035.2,286047000.9,N
1628448055.1,286047000.5,N
1628448056.0,286047000.5,N
1628448075.8,286046999.7,N
1628448095.6,286047000.0,N
1628448115.5,286047000.0,N
1628448135.3,286047002.4,N
1628448155.1,286047002.4,N
1628448175.9,286047001.8,N
1628448195.7,286047001.3,N
1628448215.6,286047002.1,N
1628448235.4,286047002.7,N
1628448255.2,286047001.8,N
1628448275.1,286047002.4,N
1628448276.0,286047002.4,N
1628448295.8,286047001.9,N
1628448315.7,286047001.9,N
1628448335.5,286047002.3,N
1628448355.3,286047002.6,N
1628448375.2,286046999.8,N
1628448395.0,286047000.0,N
1628448395.9,286047000.0,N
1628448415.8,286046999.9,N
1628448435.6,286047002.1,N
1628448455.4,286047002.3,N
1628448475.3,286047002.8,N
1628448495.1,286047002.8,N
1628448515.8,286047001.0,N
1628448535.7,286047002.5,N
1628448555.5,286047000.1,N
1628448575.4,286047000.6,N
1628448595.2,286047002.4,N
1628448615.0,286047002.1,N
1628448615.9,286047002.1,N
1628448635.8,286047001.7,N
1628448655.6,286047002.8,N
1628448675.5,286047000.4,N
1628448695.3,286047000.2,N
1628448715.1,286047000.0,N
1628448735.9,286046999.8,N
1628448755.7,286047000.0,N
1628448775.5,286047002.4,N
1628448795.4,286047000.9,N
1628448815.2,286047000.3,N
1628448835.1,286047002.7,N
1628448836.0,286047002.7,N
1628448855.8,286047002.3,N
1628448875.6,286047002.6,N
1628448895.5,286046999.8,N
1628448915.3,286047002.6,N
1628448935.1,286046999.7,N
1628448955.9,286047002.3,N
1628448975.7,286047001.4,N
1628448995.6,286047001.9,N
1628449015.4,286047002.4,N
1628449035.2,286047002.7,N
1628449055.1,286047002.4,N
1628449056.0,286047002.4,N
1628449075.8,286047002.3,N
1628449095.7,286047002.7,N
1628449115.5,286047002.2,N
1628449135.3,286047002.5,N
1628449155.2,286047001.5,N
1628449175.9,286047002.5,N
1628449195.7,286047002.1,N
